Showing default

MUOS 3, 40374

Orbit data source: Space-Track

MUOS 3, 40374 is a payload satellite owned by SPAWAR Pacific (US) in GEO that was launched on Wed, 21 Jan 2015 UTC via an ATLAS V 551 launch vehicle from the Air Force Eastern Test Range (AFETR). Payload-class satellites include a variety of spacecraft equipped with specific instruments for various scientific and technological missions. These include communications satellites like Starlink; space stations such as the ISS; scientific satellites like the Hubble; Earth observation satellites from companies like Planet Labs, Umbra, and HawkEye 360; GPS; miniature CubeSats for education and research; and military/defense satellites.

Not visible in the next 10 days
Identifier
40374, 2015-002A
Orbit
GEO
Country
Flag of USUS
Related business
Manufacturer
LMSS/LMCSS
Mission
Operational Defense Communications
Bus & Motor
A2100, BT-4
Mass
6,800 kg wet, 3,800 kg dry
Launch date (UTC)
2015-01-21 (12 years ago)
Launch vehicle
ATLAS V 551
Launch site
Air Force Eastern Test Range (AFETR)
Object type
Payload
Rocket body
Debris
Shape & HBR
Box + 2 Pan + 1 Dish, 14.4 m
Radar Cross Section
71.298 m², Large (>1 m²)

Expand to show TLE details & history
Last TLE update: 18 hours ago

TLE from 18 hours ago
0 MUOS 3
1 40374U 15002A   26264.77122277 -.00000128  00000-0  00000-0 0  9993
2 40374   4.7064  43.8055 0058272 179.0136  40.0115  1.00273140 42552
Epoch: 2026-09-21T18:30Z
TLE epoch observation values (Epoch: 2026-09-21T18:30:33.647Z)
Latitude
-2.97145°
Longitude
-15.13292°
Altitude
35,599.336 km
Speed
3.088 km/s
True Right ascension
17h 32m 36s
True Declination
-2° 58' 06"
Sunlit
Object was in daylight at epoch
Visualization orbit readout
Latitude
Unknown
Longitude
Unknown
Altitude
Unknown
Speed
Unknown
Apparent Right ascension
Unknown
Apparent Declination
Unknown
Sunlit
N/A
Visualization observer readout
Local Sidereal Time
05:23:18
Azimuth
Unknown
Elevation
Unknown
Doppler factor
Unknown
Orbital elements
Apogee altitude
36,032.981 km
Perigee altitude
35,541.569 km
Semi-major axis
42,165.412 km
Eccentricity
0.00583
Inclination
4.7064°
RAAN
43.8055°
Arg. of periapsis
179.0136°
True anomaly
40.44323°
Mean anomaly
40.0115°
Eccentric anomaly
40.22712°
Mean motion
0.25067 °/min
Orbital period
1,436.13 mins
BSTAR
0
Loading maneuver chart data...
Computing Atmospheric mass density...
Loading historical data...
Loading historical data...
Loading historical data...
Loading historical data...
Loading historical data...
Loading historical data...
Loading historical data...
Other satellites on launch #2 in the year 2015 (2015-01-21 UTC)

Documentation

Showing up to 5 results
|